Location: Gleizolles
(44.4833°N, 6.7667°E)
Time: 02:30:37
(UTC+00:00)

CZ-4C R/B - Pass Details

Date: 09 April 2020
Orbit: 637 x 1365 km, 63.4° (Epoch: 05 June)

Event Time Altitude Azimuth Distance (km) Brightness Sun altitude
Rises 20:50:17 0° 324° (NW) 3,755 6.9 -25.8°
Reaches altitude 10° 20:52:52 10° 330° (NNW) 2,906 5.9 -26.2°
Maximum altitude 20:59:39 47° 43° (NE) 1,553 3.5 -27.0°
Enters shadow 21:01:43 39° 82° (E) 1,773 3.5 -27.3°
